Overview Statistics Trail Chart Weather Telemetry Raw packets
 

This is the latest recevied weather packets stored in our database for station/object KG5MMT-15. If no packets are shown the sender has not sent any weather packets the latest 10 day(s).

<< 38 39 40 41 42 43 44 >>
Time Temp. Humidity Pressure Rain* Wind** Luminosity Snow
1788436665 15° C 58% 0 hPa 0 mm - - -
1788436365 15.56° C 55% 0 hPa 0 mm - - -
1788436065 15.56° C 55% 0 hPa 0 mm - - -
1788435765 15.56° C 54% 0 hPa 0 mm - - -
1788435465 15° C 55% 0 hPa 0 mm - - -
1788435165 15.56° C 55% 0 hPa 0 mm - - -
1788434865 15.56° C 53% 0 hPa 0 mm - - -
1788434565 15.56° C 54% 0 hPa 0 mm - - -
1788434265 15.56° C 53% 0 hPa 0 mm - - -
1788433965 15.56° C 53% 0 hPa 0 mm - - -
1788433665 16.11° C 51% 0 hPa 0 mm - - -
1788433365 16.67° C 49% 0 hPa 0 mm - - -
1788433065 16.67° C 47% 0 hPa 0 mm - - -
1788432765 16.67° C 47% 0 hPa 0 mm - - -
1788432465 16.11° C 48% 0 hPa 0 mm - - -
1788432165 15.56° C 51% 0 hPa 0 mm - - -
1788431865 15.56° C 52% 0 hPa 0 mm - - -
1788431587 16.11° C 49% 0 hPa 0 mm - - -
1788431265 15° C 52% 0 hPa 0 mm - - -
1788430965 14.44° C 57% 0 hPa 0 mm - - -
1788430665 13.89° C 60% 0 hPa 0 mm - - -
1788430365 14.44° C 59% 0 hPa 0 mm - - -
1788430065 14.44° C 59% 0 hPa 0 mm - - -
1788429765 14.44° C 58% 0 hPa 0 mm - - -
1788429465 13.89° C 60% 0 hPa 0 mm - - -

* Rain latest hour (hover to see other rain measurements)
** Current wind speed in m/s (hover to see current wind gust speed)